sat.trackr.live / text

‹ back to catalog

STARLINK-6198

NORAD 56768 · 2023-078B

PAYLOAD ACTIVE UNKNOWN

§ Identity

Operator
Country
US
Launch date
2023-05-31
Launch site
AFWTR
Launch vehicle
Mass (kg)
RCS (m²)

Purposes: comms

External: N2YO · Heavens-Above · Gunter

§ Orbital elements

Epoch: 2026-09-20T22:00:03.000096Z

Period
95.58 min
Inclination
70.0005°
Eccentricity
0.0002917
Mean motion
15.06578500 rev/d
Perigee alt
544.6 km
Apogee alt
548.7 km
Semi-major
6,924.8 km
B*
1.0902e-4
RAAN
191.9284°
Arg perigee
263.1732°
Mean anomaly
115.2541°
Rev number
576

§ Raw data

STARLINK-61981 56768U 23078B   26263.91670139  .00001517  00000+0  10902-3 0  99952 56768  70.0005 191.9284 0002917 263.1732 115.2541 15.06578500  5767

JSON: /api/v1/satellites/56768 · /tle

For live sub-satellite position, see the globe view (requires WebGL).

§ Visibility from observer

Set your observer location to see the next 7 days of passes ≥ 10°. The values pass through the URL so the page stays shareable.

No JS? Fill the form by hand. The geolocation button needs JavaScript.